Regional Weather Roundup
Issued by NWS

Home | Current Version | Previous Version | Text Only | Print | Product List | Glossary Off
Versions: 1 2 3 4 5 6 7 8 9 10 11 12 13 14 15 16 17 18 19 20 21 22 23 24 25 26 27 28 29 30 31 32 33 34 35 36 37 38 39 40 41 42 43 44 45 46 47 48 49 50

000
ASUS43 KLOT 010321
RWRIL

ILLINOIS REGIONAL WEATHER ROUNDUP
NATIONAL WEATHER SERVICE CHICAGO/ROMEOVILLE IL
1000 PM CDT TUE JUN 30 2015

NOTE: "FAIR" INDICATES FEW OR NO CLOUDS BELOW 12,000 FEET WITH NO
SIGNIFICANT WEATHER AND/OR OBSTRUCTIONS TO VISIBILITY.

* THESE STATIONS ARE NOT UNDER NWS QUALITY CONTROL. THEY ALSO MAY NOT
  REPORT WEATHER SUCH AS PRECIPITATION OR FOG.

ILZ001-002-007-009-015-016-024-010400-
NORTHWEST ILLINOIS

CITY           SKY/WX    TMP DP  RH WIND       PRES   REMARKS
MOLINE         PTCLDY    70  62  76 SE3       29.89R
STERLING*      CLEAR     63  61  94 CALM      29.89S
SAVANNA*       CLEAR     67  60  78 CALM      29.90R
$$

ILZ003-004-008-010-011-017-018-010400-
NORTH CENTRAL ILLINOIS

CITY           SKY/WX    TMP DP  RH WIND       PRES   REMARKS
ROCKFORD       MOCLDY    69  60  73 NW6       29.90R
FREEPORT*      MOCLDY    65  60  84 N5        29.92R
ROCHELLE*      PTCLDY    66  63  90 CALM      29.90R
DE KALB*       MOCLDY    63  59  88 E9        29.91R
PERU*          PTCLDY    69  62  79 CALM      29.90R
$$

ILZ005-006-012>014-019>023-010400-
NORTHEAST ILLINOIS

CITY           SKY/WX    TMP DP  RH WIND       PRES   REMARKS
CHICAGO-OHARE  MOCLDY    60  54  80 NE9       29.91R
CHICAGO-MIDWAY PTCLDY    62  56  80 NE5       29.91R
AURORA         PTCLDY    65  58  78 E8        29.90R
LANSING*       PTCLDY    58  55  87 E3        29.92R
JOLIET*        PTCLDY    65  60  83 NE7       29.90R
WAUKEGAN       CLOUDY    56  53  90 N9          N/A
DUPAGE AIRPORT PTCLDY    61  56  83 E8        29.90R
KANKAKEE*      PTCLDY    64  61  89 NE5       29.90R
WHEELING       PTCLDY    58  53  84 NE6       29.93R
MORRIS*        MOCLDY    67  63  86 E5        29.87R
ROMEOVILLE*    PTCLDY    63  56  80 E10       29.90R
NORTHERLY ISL    N/A     58  54  86 N8          N/A
$$

LMZ740>746-010400-
SOUTHERN LAKE MICHIGAN

STATION/POSITION SKY/WX   TEMP    WIND        PRES    VSBY  WAVE
                          AIR SEA DIR/SP/G                  HT/PER
                          (F)     (DEG/KT/KT) (MB)    (MI)  (FT/S)
HARRISON CRIB              58      10/ 11/ 13   N/A
BURNHAM HARBOR             58     360/  8/  9   N/A
CALUMET HARBOR             59      10/  5/ 11   N/A
BURNS HARBOR               60      30/  8/ 10 1012.5R
MICHIGAN CITY              62      20/ 10/ 12   N/A
MICHIGAN CITY 6N           62 65   40/ 10/ 14   N/A           3/ 3
ST. JOSEPH                 63 64                N/A           3/ 4
$$

ILZ025>027-034>036-040-047-049-050-058-095>099-010400-
WEST-CENTRAL ILLINOIS

CITY           SKY/WX    TMP DP  RH WIND       PRES   REMARKS
QUINCY         CLOUDY    73  68  84 CALM      29.90R
GALESBURG*     MOCLDY    67  65  91 NE6       29.89R
MACOMB*        MOCLDY    70  69  97 CALM      29.90R FOG
JACKSONVILLE*  MOCLDY    73  70  91 CALM      29.89R
PITTSFIELD*    MOCLDY    73  68  85 CALM      29.91R
$$

ILZ028>032-037-038-041>044-048-051>054-059>061-010400-
CENTRAL ILLINOIS

CITY           SKY/WX    TMP DP  RH WIND       PRES   REMARKS
PONTIAC        PTCLDY    67  65  93 CALM      29.90R
BLOOMINGTON    PTCLDY    70  65  84 NE7       29.91R
DECATUR        PTCLDY    71  64  78 N5        29.88R
PEORIA         MOCLDY    73  63  70 N3        29.89R
LACON*         PTCLDY    66  63  90 CALM      29.89R
LINCOLN*       CLOUDY    71  65  84 CALM      29.89R
SPRINGFIELD    CLOUDY    72  69  90 CALM      29.89R
TAYLORVILLE    CLOUDY    70  68  94 W3        29.89R
$$

ILZ033-039-045-046-055>057-062-063-010400-
EAST-CENTRAL ILLINOIS

CITY           SKY/WX    TMP DP  RH WIND       PRES   REMARKS
CHAMPAIGN      CLEAR     68  64  87 CALM      29.88R
DANVILLE*      PTCLDY    66  64  93 N6        29.86R
RANTOUL*       CLEAR     72  66  80 N5        29.89R
MATTOON        CLEAR     69  68  96 CALM      29.88R FOG
PARIS*         CLEAR     68  66  94 CALM      29.89R
$$

ILZ079-100>102-010400-
SOUTHWEST ILLINOIS

CITY           SKY/WX    TMP DP  RH WIND       PRES   REMARKS
ALTON          MOCLDY    71  71 100 CALM      29.90R
BELLEVILLE     MOCLDY    74  71  91 CALM      29.89R
CAHOKIA*       MOCLDY    77  69  76 CALM      29.89R
SPARTA*        MOCLDY    74  70  87 CALM      29.92R
$$

ILZ064>066-069>071-074>076-080>082-084>086-088>090-092>094-010400-
SOUTH-CENTRAL ILLINOIS

CITY           SKY/WX    TMP DP  RH WIND       PRES   REMARKS
CARBONDALE     PTCLDY    74  69  85 SW5       29.90R
CAIRO*         PTCLDY    78  70  78 SW3       29.91R HX  80
EFFINGHAM*     MOCLDY    73  67  80 CALM      29.89R
MARION         PTCLDY    73  72  94 CALM      29.91R
MT. VERNON     PTCLDY    70  63  78 CALM      29.91R
CENTRALIA*     MOCLDY    72  67  85 W3        29.90R
SALEM*         MOCLDY    72  68  87 CALM      29.90R
METROPOLIS*    PTCLDY    77  71  82 CALM      29.92R
$$

ILZ067-068-072-073-078-083-087-091-010400-
SOUTHEAST ILLINOIS

CITY           SKY/WX    TMP DP  RH WIND       PRES   REMARKS
LAWRENCEVILLE  CLOUDY    77  67  71 VRB5      29.88R
FLORA*         CLEAR     72  69  88 W5        29.89R
FAIRFIELD*     CLEAR     72  70  94 CALM      29.88R
HARRISBURG*    CLEAR     71  71  99 CALM      29.92R
ROBINSON*      MOCLDY    72  69  92 CALM      29.89R
CARMI*         PTCLDY    74  66  75 SW6       29.89R
$$

ABBREVIATIONS USED IN REMARKS
   TC - TEMPERATURE IN CELSIUS
  WCI - WIND CHILL INDEX
   HX - HEAT INDEX
  VSB - VISIBILITY
$$



USA.gov is the U.S. government's official web portal to all federal, state and local government web resources and services.